Regional Weather Roundup
Issued by NWS Green Bay, WI

Home | Current Version | Previous Version | Graphics & Text | Print | Product List | Glossary Off
Versions: 1 2 3 4 5 6 7 8 9 10 11 12 13 14 15 16 17 18 19 20 21 22 23 24 25 26 27 28 29 30 31 32 33 34 35 36 37 38 39 40 41 42 43 44 45 46 47 48 49 50

937
ASUS43 KGRB 250411
RWRGRB

NORTH-CENTRAL AND NORTHEAST WISCONSIN REGIONAL WEATHER ROUNDUP
NATIONAL WEATHER SERVICE GREEN BAY WI
1100 PM CDT MON JUL 24 2017

WIZ005-009-010>012-018-019-250500-
NORTH CENTRAL WISCONSIN

CITY           SKY/WX    TMP DP  RH WIND       PRES   REMARKS
IRONWOOD       CLOUDY    61  55  81 S6        30.08F
MANITOWISH WTR CLOUDY    55  55 100 CALM      30.11S
ARBOR VITAE    PTCLDY    59  56  90 CALM      30.11S
EAGLE RIVER    CLEAR     59  52  78 CALM      30.12S
LAND O LAKES   CLEAR     54  53  96 CALM      30.13S
RHINELANDER    CLEAR     63  55  75 CALM      30.13S
PHILLIPS       PTCLDY    59  58  95 CALM      30.10S
ANTIGO         CLEAR     58  52  80 CALM      30.14S
TOMAHAWK         N/A     56  54  92 CALM      30.12F
MERRILL        CLOUDY    62  56  81 S5        30.12S
$$

WIZ013-073-250500-
NORTHEAST WISCONSIN

CITY           SKY/WX    TMP DP  RH WIND       PRES   REMARKS
IRON MOUNTAIN  CLEAR     61  54  77 CALM      30.11S
MARINETTE      CLEAR     61  56  83 CALM      30.13R
OCONTO         CLEAR     57  55  93 CALM      30.12R
$$

WIZ017-030-035>037-045-250500-
CENTRAL WISCONSIN

CITY           SKY/WX    TMP DP  RH WIND       PRES   REMARKS
MEDFORD        CLOUDY    60  55  83 SE3       30.10F
WAUSAU         CLEAR     61  53  75 E3        30.11S
MOSINEE        PTCLDY    59  54  82 E6        30.13S
MARSHFIELD     CLEAR     60  55  83 CALM      30.10F
WISC RAPIDS    CLEAR     62  55  77 SE7       30.12S
STEVENS POINT  CLEAR     59  55  87 CALM      30.13S
WAUPACA        CLEAR     60  58  92 CALM      30.13S
SHAWANO        CLEAR     61  56  83 CALM      30.12S
CLINTONVILLE   CLEAR    N/A N/A N/A CALM      30.12F
WAUTOMA        CLEAR     60  58  92 CALM      30.13R
$$

WIZ038-039-048-051-250500-
FOX VALLEY

CITY           SKY/WX    TMP DP  RH WIND       PRES   REMARKS
NWS GREEN BAY  CLEAR     58  57  97 W3        30.13R
APPLETON       PTCLDY    64  43  45 E3        30.12R
OSHKOSH        CLEAR     62  52  69 CALM      30.12R
FOND DU LAC    CLEAR     60  48  64 CALM      30.12R
$$

WIZ022-050-052-250500-
EAST CENTRAL WISCONSIN

CITY           SKY/WX    TMP DP  RH WIND       PRES   REMARKS
EPHRAIM        FAIR      58  51  76 CALM      30.12S
WASHINGTON ISL NOT AVBL
STURGEON BAY     N/A     58  54  86 CALM      30.13S
MANITOWOC      CLEAR     58  50  75 NW6       30.12F
SHEBOYGAN      CLEAR     54  54 100 W3        30.12S
$$

LMZ563-521-522-541>543-250500-
LAKESHORE

STATION/POSITION TIME  TEMP    WIND        PRES    VSBY  WAVE
                       AIR SEA DIR/SP/G                  HT/PER
                 (UTC) (F)     (DEG/KT/KT) (MB)    (MI)  (FT/S)
SHEBOYGAN LKSHOR 0400   66      60/  6/  7 1019.7R
KEWAUNEE LKSHORE 0348   59     310/  3/  4 1019.1F
NORTHPORT PIER   0340   61     220/  3/  6 1020.0R
N MID LAKE BUOY  0350   66 66  270/  4/  4 1020.7R         0
S GREEN BAY BUOY 0400   68 72  150/  8/ 10 1019.5
SISTER BAY LKSHO 0402   63        CALM       N/A
CHAMBERS ISLAND  0340   60     130/  2/  4 1019.3S
MENOMINEE LKSHOR 0348   69     160/  5/  8 1019.4F
$$




USA.gov is the U.S. government's official web portal to all federal, state and local government web resources and services.